Location: Newark
(0.5300°S, 127.4800°E)
Time: 23:33:36
(UTC+00:00)

A-11 Canister half - Pass Details

Date: 18 September 2019
Orbit: 1514 x 1686 km, 47.2° (Epoch: 21 October)

Event Time Altitude Azimuth Distance (km) Brightness Sun altitude
Rises 21:12:11 0° 199° (SSW) 4,882 11.4 -3.0°
Reaches altitude 10° 21:16:04 10° 187° (S) 3,869 11.0 -2.0°
Maximum altitude 21:23:59 27° 133° (SE) 2,696 11.0 -0.1°
Drops below altitude 10° 21:31:38 10° 79° (ENE) 3,750 13.2 1.8°
Sets 21:35:17 0° 67° (ENE) 4,708 13.1 2.8°
